Weather in Bude

United Kingdom     50°49′25″N   4°32′22″W
temp.,
°C
wind,
m/s
gust,
m/s
humid.,
%
clouds,
%
prec.,
mm/h
press.,
hPa
HPBL,
m
20 april, tue
tue2001:00+6se1173100 0.0 101923
04:00+6ese117399 0.0 101820
07:00+5e1181100 0.0 101827
10:00+9e2261100 0.0 1019316
13:00+12nne015089 0.0 1018899
16:00+12nw325864 0.0 1017854
19:00+10nnw347864 0.0 1018165
22:00+6ne128079 0.0 101915
21 april, wed
wed2101:00+6e228285 0.0 101929
04:00+7e2382100 0.0 101854
07:00+8e3585100 0.0 1019112
10:00+11e577681 0.0 1020494
13:00+12e897862 1.2 1020967
16:00+12e698242 0.6 1020711
19:00+10e610879 1.6 1021652
22:00+8e7138721 0.0 1023563
22 april, thu
thu2201:00+4e614870 0.0 1024402
04:00+2e614900 0.0 1024373
07:00+1e614885 0.0 1025352
10:00+7ese811630 0.0 1025549
13:00+11ese810540 0.0 1025875
16:00+11ese810550 0.0 1025832
19:00+9ese612760 0.0 1026585
22:00+6ese716770 0.0 1026507
23 april, fri
fri2301:00+6ese816730 0.0 1026499
04:00+5ese816830 0.0 1025426
07:00+5ese816874 0.0 1025482
10:00+10ese10157396 0.0 1026751
13:00+12ese101462100 0.0 1025837
16:00+12ese101463100 0.0 1024758
19:00+9ese8166867 0.0 1025552
22:00+7ese8176796 0.0 1025456
24 april, sat
sat2401:00+8ese81773100 0.0 1024456
04:00+6ese7168298 0.0 1024403
07:00+6e71582100 0.0 1024387
10:00+10ese81571100 0.0 1024614
13:00+13ese91463100 0.0 1024826
16:00+13ese9146295 0.0 1024751
19:00+10e8175899 0.0 1025564
22:00+9ese81660100 0.0 1026534